Location: Gonnostramatza
(39.6833°N, 8.8364°E)
Time: 10:53:37
(UTC+00:00)

Daily predictions for brighter satellites

Satellite Brightness Start Highest point End
(mag) Time Altitude Azimuth Time Altitude Azimuth Time Altitude Azimuth
CZ-4B R/B 2.8 16:26:45 10° SSE 16:30:45 82° ENE 16:34:33 10° N
CZ-2C R/B 3.8 16:28:41 10° NE 16:32:37 22° E 16:36:32 10° SE
SL-24 R/B - RUBIN 2 3.5 16:28:59 10° NNW 16:33:26 71° ENE 16:37:43 10° SE
Meteor 1-25 Rocket 4.5 16:28:05 10° NNW 16:33:41 78° W 16:39:19 10° S
Cosmos 1500 3.1 16:33:15 10° N 16:36:57 63° E 16:40:38 10° SSE
Cosmos 44 Rocket 4.1 16:33:48 10° NNW 16:38:05 29° NE 16:42:14 10° ESE
COSMOS 2406 4.4 16:33:44 10° SW 16:39:10 43° WNW 16:44:37 10° N
Cosmos 1814 Rocket 4.0 16:34:44 10° SSW 16:39:57 81° ESE 16:45:09 10° NNE
Cosmos 921 Rocket 3.7 16:37:32 10° SSE 16:41:16 32° E 16:45:04 10° NE
Cosmos 1570 Rocket 4.0 16:41:35 10° SSW 16:46:49 80° ESE 16:52:04 10° NNE
CZ-4B R/B 3.8 16:46:48 10° SE 16:51:28 31° ENE 16:56:06 10° N
CZ-2D R/B 3.6 16:50:10 10° SE 16:53:45 41° ENE 16:57:21 10° N
MOS 1-B Rocket 4.4 16:48:02 10° NNE 16:54:09 55° ESE 17:01:13 10° S
Cosmos 1939 Rocket 3.1 16:52:16 10° S 16:56:22 77° WSW 17:00:27 10° NNW
ATLAS CENTAUR R/B 4.3 16:47:39 10° WSW 16:56:47 33° NW 17:01:03 10° NNE
USA 267 3.6 16:50:57 10° NE 16:57:25 65° NW 17:03:51 10° WSW
Cosmos 1151 Rocket 3.0 16:54:58 10° S 16:59:17 87° E 17:03:40 10° N
Cosmos 1782 4.2 16:57:43 10° SSW 17:01:28 40° W 17:05:15 10° N
APEX 3.2 16:58:04 10° S 17:01:57 51° ESE 17:04:23 16° NE
Meteor 2-6 Rocket 4.2 16:56:32 10° S 17:02:12 64° E 17:07:45 10° NNE
COSMO-SKYMED 1 3.1 16:59:50 10° NNE 17:03:53 37° E 17:07:55 10° SSE
Cosmos 1633 Rocket 3.0 16:59:37 10° N 17:03:59 64° E 17:08:20 10° SSE
Cosmos 1666 2.5 17:01:57 10° N 17:05:41 76° E 17:09:22 10° S
PAYLOAD B 4.2 17:00:45 10° SSE 17:06:16 62° ENE 17:11:47 10° N
Landsat 5 4.4 17:05:03 17° NE 17:07:04 25° E 17:10:20 10° SSE
Cosmos 2360 Rocket 3.6 17:04:16 10° N 17:07:49 17° NE 17:08:17 17° ENE
ISS -3.1 17:04:55 10° WNW 17:08:15 58° SW 17:11:35 10° SE
Cosmos 1818 3.6 17:08:25 10° NNW 17:13:50 60° NE 17:19:11 10° SE
Cosmos 2279 Rocket 4.1 17:08:58 10° S 17:15:10 81° W 17:21:24 10° N
CZ-2C R/B 2.2 17:12:26 10° WSW 17:16:32 42° S 17:19:13 19° ESE
Meteor 2-15 4.4 17:11:29 10° S 17:17:32 66° E 17:23:34 10° NNE
ATLAS 5 CENTAUR R/B 3.2 17:15:19 10° NNW 17:19:18 20° NNE 17:19:39 20° NNE
SL-08 RB Rocket 4.4 17:18:56 10° SE 17:22:59 31° ENE 17:27:02 10° N
USA 307 4.3 17:19:49 10° NNW 17:23:06 21° NNE 17:23:33 21° NNE
Cosmos 2266 Rocket 4.1 17:17:02 10° N 17:23:17 53° E 17:29:31 10° SSE
CZ-4C R/B 3.2 17:17:34 10° NW 17:25:09 83° WSW 17:33:47 10° SSE
Lacrosse 5 rocket 1.3 17:22:50 10° NW 17:26:45 56° NE 17:28:57 25° ESE
SKYMED 3 4.5 17:23:43 10° NNE 17:28:04 72° ESE 17:32:24 10° S
USA 234 3.3 17:22:35 11° ESE 17:28:46 59° NE 17:35:10 10° NW
Cosmos 1328 Rocket 4.1 17:24:58 10° SSW 17:29:22 62° W 17:33:46 10° N
Tiangong 2.1 17:26:51 10° SW 17:29:43 32° SSE 17:30:10 30° SE
Cosmos 2322 Rocket 2.6 17:25:41 10° N 17:31:00 38° ENE 17:35:03 16° ESE
Cosmos 1933 Rocket 3.8 17:26:57 10° N 17:31:05 43° ENE 17:35:12 10° SSE
Cosmos 2150 Rocket 3.9 17:27:42 10° NNW 17:32:52 63° ENE 17:38:04 10° SSE
Cosmos 1980 Rocket 3.7 17:28:51 10° NW 17:34:04 39° WSW 17:39:12 10° S
Cosmos 1867 3.5 17:29:59 10° SSW 17:35:23 69° ESE 17:38:27 26° NE
NOSS 3-3 (A) 4.0 17:30:16 10° S 17:35:34 50° ESE 17:38:22 29° ENE
NOSS 3-3 (C) 4.0 17:30:22 10° S 17:35:41 50° ESE 17:38:27 29° ENE
H-2A R/B 2.2 17:31:19 10° S 17:36:28 74° WSW 17:41:30 10° NNW
Cosmos 1470 Rocket 3.5 17:32:40 10° N 17:37:10 86° E 17:41:39 10° S
Cosmos 1544 2.9 17:33:36 10° N 17:37:12 66° E 17:40:48 10° SSE
DEBRIS 2.6 17:35:26 10° SW 17:37:44 60° SE 17:38:35 44° E
X-37B 0.7 17:34:55 10° W 17:37:45 53° NNW 17:37:49 53° NNW
Okean O Rocket 1.5 17:33:55 10° SSE 17:38:19 63° ENE 17:42:44 10° N
Cosmos 1125 Rocket 3.4 17:33:52 10° NNW 17:39:07 67° ENE 17:44:21 10° SSE
Meteor 1-10 Rocket 4.3 17:33:33 10° S 17:39:20 84° W 17:45:01 10° N
USA 32 4.0 17:36:14 10° SSE 17:41:21 59° E 17:46:22 11° NNE
Meteor 1-11 Rocket 3.6 17:38:47 10° N 17:44:27 68° E 17:50:13 10° SSE
USA 308 4.1 17:42:20 10° NNW 17:45:22 26° NNE 17:45:22 26° NNE
ARGOS 3.0 17:42:53 10° SSE 17:48:18 83° ENE 17:53:43 10° NNW
Cosmos 2082 Rocket 4.4 17:46:31 10° W 17:50:37 20° NW 17:54:44 10° N
SL-16 R/B 2.1 17:45:59 10° NNW 17:51:41 76° ENE 17:57:20 10° SSE
SKYMED 2 4.0 17:47:47 10° N 17:51:59 60° WNW 17:56:15 10° SSW
deb Chang Zheng 4 3.7 17:49:36 10° S 17:53:54 74° WSW 17:58:13 10° NNW
Cosmos 1241 Rocket 4.4 17:52:26 10° SSW 17:58:50 87° ESE 18:01:58 32° NNE
Feng Yun 1-1 Rocket 4.2 17:57:16 10° SSE 18:03:09 71° ENE 18:08:58 10° N
USA 305 4.2 18:06:25 10° NW 18:08:52 29° NNW 18:08:52 29° NNW
Cosmos 2333 Rocket 4.1 18:06:39 10° N 18:08:05 16° N 18:08:05 16° N
Cosmos 1356 Rocket 4.0 18:07:39 10° NNW 18:11:49 58° W 18:16:00 10° S
CZ-2C R/B 3.7 18:08:13 10° N 18:13:05 42° WNW 18:17:55 10° SW
Aureole 3 Rocket 3.7 18:11:26 10° SSW 18:15:41 67° W 18:21:43 10° N
Cosmos 2219 Rocket 4.4 18:14:42 10° N 18:15:05 11° N 18:15:05 11° N
Spot 2 4.5 18:17:47 10° SSE 18:23:28 72° N 18:28:04 10° NNW
Cosmos 2228 Rocket 4.1 18:19:03 10° S 18:21:40 36° S 18:21:40 36° S
IRAS Rocket 4.4 18:39:35 67° SSW 18:39:35 67° SSW 18:44:21 10° SSW
Cosmos 1833 4.4 18:40:01 10° SSW 18:45:04 65° W 18:45:04 65° W
Cosmos 2360 Rocket 3.3 18:46:48 10° NNW 18:50:08 37° NNW 18:50:08 37° NNW
CZ-2C R/B 3.8 18:51:49 10° WSW 18:53:23 20° WSW 18:53:23 20° WSW
Lacrosse 5 rocket 4.2 19:02:51 10° W 19:04:38 16° WSW 19:04:38 16° WSW
USA 234 4.3 19:10:00 33° SSW 19:11:53 39° SW 19:17:58 10° WNW
Cosmos 2322 Rocket 3.9 19:10:01 10° NW 19:14:51 29° WSW 19:17:09 22° SW
